Skip Page Navigation
NASA JPL Caltech
NASA Logo - Jet Propulsion Laboratory + View the NASA Portal
+ Center for Near-Earth Object Studies
JPL Home Earth Solar System Stars & Galaxies Technology
JPL Solar System Dynamics
BODIES ORBITS EPHEMERIDES TOOLS PHYSICAL DATA DISCOVERY FAQ SITE MAP
IMPORTANT: The SSD Announcement email list is now available. Major changes are coming in the near future, including possible hostname and/or URL changes. To be notified of such changes, subscribe to this email list.

Please visit this page for more details.


JPL Small-Body Database Browser
Search: [ help ]  
47886 (2000 FT42)
Classification: Main-belt Asteroid          SPK-ID: 2047886
Ephemeris | Orbit Diagram | Orbital Elements | Mission Design | Physical Parameters | Discovery Circumstances | Close-Approach Data ]

[ show orbit diagram ]
Orbital Elements at Epoch 2458600.5 (2019-Apr-27.0) TDB
Reference: JPL 25 (heliocentric ecliptic J2000)
 Element Value Uncertainty (1-sigma)   Units 
e .02731597359388842 3.9813e-08  
a 2.977401270517027 2.0755e-08 au
q 2.896070656033174 1.173e-07 au
i 2.689138078834653 4.0578e-06 deg
node 86.38463229207387 9.611e-05 deg
peri 100.848749864964 0.00012391 deg
M 250.3527525732509 7.9535e-05 deg
tp 2459172.044057723740
(2020-Nov-18.54405772)
0.00041592 TDB
period 1876.525545413291
5.14
1.9622e-05
5.372e-08
d
yr
n .1918439111473501 2.006e-09 deg/d
Q 3.05873188500088 2.1322e-08 au
  Orbit Determination Parameters
   # obs. used (total)      1336  
   data-arc span      12765 days (34.95 yr)  
   first obs. used      1984-01-25  
   last obs. used      2019-01-06  
   planetary ephem.      DE431  
   SB-pert. ephem.      SB431-N16  
   condition code      0  
   norm. resid. RMS      .50565  
   source      ORB  
   producer      Otto Matic  
   solution date      2019-Jul-13 02:44:03  

Additional Information
 Earth MOID = 1.89762 au 
 Jupiter MOID = 1.89955 au 
 T_jup = 3.258 
[ show covariance matrix ]

Ephemeris | Orbit Diagram | Orbital Elements | Mission Design | Physical Parameters | Discovery Circumstances | Close-Approach Data ]

Physical Parameter Table
Parameter Symbol Value Units Sigma Reference Notes
absolute magnitude H 13.9   n/a MPO337641  
diameter diameter 4.484 km 0.452 urn:nasa:pds:neowise_diameters_albedos::2.0[mainbelt] (http://adsabs.harvard.edu/abs/2011ApJ...741...68M)  
geometric albedo albedo 0.265   0.040 urn:nasa:pds:neowise_diameters_albedos::2.0[mainbelt] (http://adsabs.harvard.edu/abs/2011ApJ...741...68M)  

47886 (2000 FT42)          Discovered 2000-Mar-28 by LINEAR at Socorro
Reference: 20020921/Numbers.arcLast Updated: 2004-04-19

[ show close-approach data ]
Alternate Designations
 2000 FT42 = 1984 BH2 
Ephemeris | Orbit Diagram | Orbital Elements | Mission Design | Physical Parameters | Discovery Circumstances | Close-Approach Data ]
ABOUT SSD CREDITS/AWARDS PRIVACY/COPYRIGHT GLOSSARY LINKS
FirstGov 2020-Jan-23 23:11 UT
(server date/time)  
NASA Home Page
Site Manager:   Ryan S. Park
Webmaster  Alan B. Chamberlin